Wind_Speed
7 8 8 10 11 12 13 14 16 17 19 20 22 23 25 26 27 28 28 29 29 29 29 29 28 28 29 28 28 28 28 27 27 27 26 26 26 26
8 8 9 10 11 12 12 13 14 16 17 19 21 22 23 24 25 26 27 29 30 30 30 29 29 29 28 28 28 28 29 29 29 30 29 28 28 27
8 8 8 9 10 11 12 13 13 15 16 18 19 21 23 23 24 25 26 28 28 29 29 30 29 29 29 28 29 29 29 29 29 30 30 30 30 29
8 8 8 8 10 10 11 13 13 14 16 17 18 20 22 23 24 24 25 27 28 29 30 31 30 30 30 30 29 29 29 29 30 30 30 31 31 31
10 9 9 9 10 10 12 13 14 14 16 18 18 19 21 23 24 24 25 26 27 29 30 31 31 31 32 32 31 31 30 30 30 31 30 31 31 32
12 11 11 11 11 11 12 13 14 14 16 17 18 19 20 21 23 24 25 26 27 28 29 30 31 31 32 32 33 32 31 31 31 31 31 31 32 33
14 13 13 13 12 12 13 14 14 15 16 17 17 19 19 20 21 23 24 24 25 27 28 30 31 31 31 32 32 32 33 33 32 32 32 32 32 33
16 15 15 14 14 14 14 14 14 15 17 18 19 20 21 21 21 21 22 23 24 26 27 28 30 31 31 32 32 31 31 32 32 33 33 33 33 33
18 18 17 17 16 15 15 15 15 16 17 18 19 19 20 21 21 21 22 22 24 25 26 27 28 29 30 31 31 32 32 31 31 32 32 33 33 33
21 20 19 19 18 18 17 17 17 16 16 17 18 20 20 20 21 21 21 22 22 23 24 26 28 29 30 31 31 32 33 33 32 32 33 34 34 34
24 22 22 21 21 20 19 19 18 18 18 17 18 18 19 20 20 20 21 21 22 23 24 25 27 29 30 31 31 32 33 33 33 33 33 34 34 34
26 25 23 23 22 22 21 20 20 19 19 19 18 18 18 19 19 20 20 21 22 23 24 25 26 28 29 30 31 31 32 32 32 33 33 34 35 35
28 27 26 25 24 24 23 22 21 20 20 19 19 19 19 19 19 20 21 21 22 23 24 25 26 27 28 28 30 31 31 32 33 33 34 35 35 36
30 30 29 28 27 26 25 24 23 22 22 21 21 20 20 20 20 20 21 21 22 22 22 23 24 25 26 27 29 30 31 32 33 33 34 35 36 37
32 31 31 30 29 28 28 27 26 25 24 23 23 23 22 21 21 21 22 22 22 22 23 23 23 24 25 27 28 29 30 31 32 33 34 35 36 37
34 33 33 32 31 30 29 28 27 27 26 25 25 24 23 23 22 22 22 22 22 23 23 23 24 24 25 26 27 28 29 31 32 33 34 35 37 38
37 36 35 33 32 32 31 30 28 28 28 27 27 26 25 24 24 23 23 23 23 23 24 25 25 25 26 26 28 28 29 30 31 32 33 35 36 37
39 37 36 35 34 33 32 31 30 29 29 29 28 27 27 26 26 26 25 25 25 25 25 26 26 26 27 27 28 29 29 30 31 32 34 35 36 38
41 39 38 37 35 34 34 32 32 31 30 30 29 28 28 28 27 27 27 27 27 27 27 27 27 27 27 28 29 30 30 31 32 33 34 36 36 38
42 41 40 38 37 36 35 34 33 32 31 31 30 29 28 28 28 28 28 27 28 28 28 28 28 28 28 29 30 30 31 32 33 34 35 36 37 38
44 42 41 40 38 37 36 35 34 33 32 32 31 30 29 29 29 28 28 28 28 28 28 29 29 29 29 30 30 31 32 34 35 36 37 37 38 39
45 44 43 41 39 38 37 36 35 34 33 32 31 30 30 30 29 29 28 28 29 29 29 29 30 30 31 31 32 32 33 34 35 36 37 38 39 39
46 46 44 43 41 40 39 38 36 35 34 32 31 31 30 30 29 29 29 29 29 29 29 29 30 31 32 32 33 33 34 35 35 36 37 38 38 39
Wind_Direction
280 267 255 248 242 238 231 228 229 230 228 226 224 223 225 226 226 226 226 227 229 229 230 232 232 234 234 234 235 235 236 237 238 240 242 244 246 247
287 276 261 253 245 237 232 231 232 230 230 227 225 225 224 224 225 227 227 228 228 230 231 232 234 236 238 238 238 239 239 241 242 243 245 247 248 250
293 280 267 255 247 238 234 234 235 234 233 231 227 228 226 225 226 228 228 228 229 230 232 234 236 237 239 240 241 241 243 245 246 246 247 248 249 252
291 281 269 259 250 241 238 237 238 237 236 234 233 231 230 228 229 230 231 232 232 233 233 234 237 238 239 240 242 243 245 247 250 250 249 249 250 252
284 276 270 262 254 248 245 242 240 239 238 237 236 234 233 232 232 233 235 237 236 236 236 237 238 240 241 241 244 245 247 249 251 251 250 250 251 253
282 276 270 263 258 256 253 249 245 243 241 239 238 236 235 235 236 236 238 241 240 239 239 239 241 242 242 243 244 246 248 250 251 252 251 252 254 256
278 274 268 264 260 258 256 254 250 246 243 241 241 238 239 239 240 239 242 244 243 241 240 240 241 241 242 243 244 247 249 250 251 252 252 253 255 257
276 272 266 264 262 259 258 255 253 250 247 244 244 243 242 242 243 245 246 245 245 244 243 243 242 243 244 244 246 247 249 251 252 253 254 255 257 258
272 269 265 262 259 257 257 255 254 253 252 250 248 248 247 246 247 248 246 247 246 245 245 245 244 245 245 246 247 248 250 252 253 254 256 257 258 260
267 265 263 260 258 257 256 254 254 253 253 252 251 250 251 251 251 251 249 248 247 247 247 246 245 246 247 248 249 250 252 254 255 257 258 259 261 262
263 262 261 259 257 257 256 254 254 253 252 251 251 251 251 251 251 250 251 250 250 249 250 250 249 248 248 250 251 252 254 256 257 258 259 261 262 264
261 260 259 258 257 256 256 255 254 253 251 251 250 251 251 252 252 252 252 253 253 252 251 252 252 252 251 251 253 254 255 256 258 259 260 261 263 264
259 258 256 255 256 256 255 255 254 254 252 252 252 253 254 254 254 254 254 254 254 254 254 254 254 253 253 254 254 255 256 257 259 261 263 264 265 266
257 256 255 253 253 253 253 254 254 254 253 252 252 253 254 254 255 255 255 255 255 255 256 257 256 256 255 256 257 258 259 260 262 264 266 267 267 268
255 255 254 252 251 251 252 251 252 252 252 252 252 252 254 254 255 256 256 256 257 257 257 258 258 258 258 259 260 262 263 264 265 266 267 269 270 271
253 253 252 251 250 251 251 251 252 251 251 251 251 252 254 254 256 257 257 257 258 258 257 258 259 260 261 262 263 265 267 268 269 270 271 271 272 273
250 250 250 250 250 250 251 251 251 251 250 250 251 253 254 254 255 256 256 257 258 258 260 260 261 262 265 266 267 268 270 270 271 273 273 274 275 276
248 248 248 248 248 249 250 251 250 251 251 250 251 252 253 254 254 255 255 256 257 258 260 263 265 264 266 269 271 272 273 274 275 276 277 277 277 278
247 246 247 247 248 248 249 250 250 251 251 251 251 252 253 253 255 255 256 257 258 260 262 263 266 267 269 271 273 274 276 277 277 278 279 280 280 280
246 246 246 246 246 247 248 248 250 250 251 250 250 251 252 253 255 256 257 259 260 261 262 264 266 268 270 273 274 276 277 279 280 280 281 282 282 283
245 244 244 245 245 246 247 247 248 249 250 250 250 251 252 253 255 257 258 260 262 264 264 266 267 269 271 274 276 277 279 281 282 283 283 283 284 285
244 243 242 243 244 244 245 245 246 248 249 250 250 251 252 253 255 257 259 261 263 265 266 267 270 271 273 276 279 280 281 282 284 284 285 286 287 287
241 241 240 240 241 242 243 244 245 246 247 248 249 250 252 253 255 257 259 262 264 266 267 269 272 274 277 278 281 282 283 285 286 287 287 288 289 290
Height
5788 5787 5787 5786 5787 5788 5788 5790 5791 5793 5795 5796 5799 5801 5804 5807 5810 5813 5816 5819 5822 5826 5829 5832 5835 5838 5841 5843 5846 5848 5851 5853 5856 5858 5860 5862 5864 5866
5786 5785 5784 5784 5784 5785 5786 5787 5788 5789 5791 5792 5795 5797 5800 5802 5805 5808 5811 5814 5817 5820 5824 5827 5830 5832 5835 5838 5840 5843 5845 5848 5850 5852 5854 5856 5858 5860
5784 5783 5782 5782 5782 5783 5783 5784 5785 5786 5787 5789 5790 5793 5795 5798 5800 5803 5806 5809 5812 5815 5818 5821 5824 5827 5829 5832 5834 5836 5839 5841 5844 5846 5848 5850 5852 5854
5782 5781 5781 5780 5780 5780 5781 5781 5782 5783 5784 5785 5787 5789 5791 5793 5796 5798 5801 5803 5806 5809 5812 5815 5818 5820 5823 5825 5828 5830 5832 5835 5837 5839 5841 5843 5845 5846
5780 5779 5779 5778 5778 5778 5778 5779 5779 5780 5781 5782 5783 5785 5787 5789 5791 5793 5796 5798 5800 5803 5806 5808 5811 5814 5816 5819 5821 5823 5826 5828 5830 5831 5833 5835 5837 5838
5778 5777 5776 5776 5775 5775 5775 5775 5776 5776 5777 5778 5779 5780 5782 5784 5786 5788 5790 5792 5794 5796 5799 5801 5804 5807 5809 5812 5814 5816 5818 5820 5822 5824 5825 5827 5829 5830
5774 5773 5773 5773 5772 5772 5772 5772 5772 5772 5773 5774 5775 5776 5778 5779 5781 5783 5785 5786 5788 5790 5792 5794 5797 5799 5802 5804 5806 5809 5811 5813 5814 5816 5817 5819 5820 5822
5770 5770 5769 5769 5769 5768 5768 5768 5769 5769 5769 5770 5771 5772 5773 5775 5776 5777 5779 5780 5782 5784 5785 5787 5789 5792 5794 5797 5799 5801 5803 5805 5806 5808 5809 5810 5812 5813
5765 5765 5765 5765 5764 5764 5764 5764 5764 5764 5765 5765 5766 5767 5768 5769 5770 5771 5772 5774 5775 5777 5778 5780 5782 5784 5786 5788 5791 5793 5795 5796 5798 5799 5801 5802 5803 5804
5760 5759 5759 5759 5759 5759 5759 5759 5760 5760 5760 5761 5761 5762 5763 5763 5764 5765 5766 5767 5769 5770 5771 5773 5775 5777 5779 5781 5783 5785 5787 5788 5790 5791 5792 5793 5794 5795
5752 5753 5753 5753 5754 5754 5754 5754 5754 5755 5755 5756 5756 5757 5757 5757 5758 5759 5760 5761 5762 5763 5764 5766 5767 5769 5771 5772 5774 5776 5778 5779 5781 5782 5783 5784 5784 5785
5745 5745 5746 5746 5747 5747 5748 5748 5748 5749 5749 5750 5750 5751 5751 5752 5752 5753 5754 5754 5755 5756 5757 5758 5759 5761 5762 5764 5766 5767 5769 5770 5771 5773 5773 5774 5774 5775
5736 5737 5738 5739 5740 5740 5741 5742 5742 5742 5743 5744 5744 5745 5745 5746 5746 5747 5747 5748 5748 5749 5750 5751 5752 5753 5754 5756 5757 5759 5760 5761 5762 5763 5764 5764 5764 5764
5726 5728 5729 5730 5731 5732 5734 5735 5735 5736 5736 5737 5738 5738 5739 5740 5740 5740 5741 5741 5742 5742 5743 5744 5744 5745 5747 5748 5749 5750 5751 5752 5753 5753 5754 5754 5754 5754
5716 5718 5719 5721 5722 5724 5725 5726 5727 5728 5729 5730 5731 5732 5732 5733 5733 5734 5734 5735 5735 5736 5736 5737 5738 5738 5739 5740 5741 5742 5743 5743 5743 5744 5744 5744 5744 5743
5705 5707 5708 5710 5712 5714 5716 5717 5719 5720 5721 5722 5723 5724 5725 5726 5726 5727 5728 5728 5729 5729 5729 5730 5731 5731 5732 5732 5733 5733 5734 5734 5734 5734 5734 5733 5733 5732
5692 5695 5697 5700 5702 5704 5706 5708 5710 5711 5713 5714 5715 5716 5717 5718 5719 5720 5720 5721 5722 5722 5723 5723 5724 5724 5724 5725 5725 5725 5725 5724 5724 5724 5723 5723 5722 5721
5679 5682 5686 5689 5691 5694 5696 5698 5700 5702 5704 5705 5707 5708 5709 5710 5711 5712 5713 5714 5714 5715 5715 5716 5716 5716 5717 5717 5716 5716 5715 5715 5714 5714 5713 5712 5711 5710
5665 5670 5674 5677 5680 5683 5686 5688 5690 5692 5694 5696 5698 5699 5700 5702 5703 5704 5704 5705 5706 5707 5707 5708 5708 5708 5708 5708 5707 5707 5706 5705 5704 5703 5702 5701 5700 5698
5652 5657 5661 5665 5668 5671 5674 5677 5680 5682 5684 5686 5688 5690 5691 5693 5694 5695 5696 5697 5697 5698 5698 5699 5699 5699 5699 5699 5698 5697 5696 5695 5694 5693 5692 5690 5688 5686
5639 5643 5648 5652 5656 5660 5663 5666 5669 5671 5674 5676 5678 5680 5682 5683 5685 5686 5687 5688 5688 5689 5689 5689 5690 5690 5689 5689 5689 5687 5686 5685 5683 5682 5680 5679 5677 5675
5624 5629 5634 5639 5643 5647 5651 5654 5657 5660 5663 5665 5668 5670 5672 5673 5675 5676 5678 5678 5679 5679 5680 5680 5680 5680 5680 5679 5678 5677 5676 5674 5673 5670 5668 5666 5664 5662
5608 5614 5619 5625 5630 5634 5638 5642 5646 5649 5652 5655 5657 5659 5662 5664 5665 5667 5668 5669 5670 5670 5670 5670 5670 5670 5669 5668 5667 5666 5665 5663 5661 5659 5657 5654 5652 5649